Location: Buckland
(65.9785°N, 161.1281°W)
Time: 12:55:49
(UTC+00:00)

SPROUT - Pass Details

Date: 22 January 2021
Orbit: 597 x 609 km, 97.9° (Epoch: 05 March)

Event Time Altitude Azimuth Distance (km) Brightness Sun altitude
Exits shadow 04:40:37 - 16° (NNE) 2,159 ? -16.3°
Reaches altitude 10° 04:41:47 10° 2° (N) 1,979 ? -16.4°
Maximum altitude 04:42:53 11° 348° (NNW) 1,921 ? -16.5°
Drops below altitude 10° 04:43:58 10° 333° (NNW) 1,980 ? -16.7°
Sets 04:47:50 0° 297° (WNW) 2,885 ? -17.0°
